MIDAS 4 DEB, 194

Orbit data source: Space-Track

MIDAS 4 DEB, 194 is space debris in LEO originally from a launch on Sat, 21 Oct 1961 UTC via an ATLAS AGENA B launch vehicle from the Air Force Western Test Range (AFWTR). Debris objects in space refer to the collection of defunct objects orbiting the Earth. Examples of debris include non-operational satellites, rocket bodies, and fragments generated from explosions, collisions, or faulty payload assembly.

Loading next visibility...
Identifier
194, 1961-028C
Orbit
LEO
Country
Flag of USUS
Related business
Manufacturer
MIT-LL
Mission
Spacecraft
Bus & Motor
WESTFORD, Unknown motor
Mass
30 kg wet, 30 kg dry
Launch date (UTC)
1961-10-21 (64 years ago)
Launch vehicle
ATLAS AGENA B
Launch site
Air Force Western Test Range (AFWTR)
Object type
Payload
Rocket body
Debris
Shape & HBR
Unknown
Radar Cross Section
Medium (>0.1 m² and <1 m²)

Expand to show TLE details & history
Last TLE update: 3 days ago

TLE from 3 days ago
0 MIDAS 4 DEB
1 00194U 61028C   25304.62176596  .00000058  00000-0  24768-1 0  9998
2 00194  95.8322 200.4763 0411384  46.3276 317.0924  8.70106972 33255
Epoch: 2025-10-31T14:55Z
TLE epoch observation values (Epoch: 2025-10-31T14:55:20.578Z)
Latitude
0.00001°
Longitude
-63.52301°
Altitude
3,316.438 km
Speed
6.506 km/s
True Right ascension
13h 21m 54s
True Declination
0° 00' 00"
Sunlit
Object was in daylight at epoch
Visualization orbit readout
Latitude
Unknown
Longitude
Unknown
Altitude
Unknown
Speed
Unknown
Apparent Right ascension
Unknown
Apparent Declination
Unknown
Sunlit
N/A
Visualization observer readout
Local Sidereal Time
15:02:56
Azimuth
Unknown
Elevation
Unknown
Doppler factor
Unknown
Orbital elements
Apogee altitude
4,015.534 km
Perigee altitude
3,194.166 km
Semi-major axis
9,982.987 km
Eccentricity
0.04114
Inclination
95.8322°
RAAN
200.4763°
Arg. of periapsis
46.3276°
True anomaly
313.75943°
Mean anomaly
317.0924°
Eccentric anomaly
315.43851°
Mean motion
2.17597 °/min
Orbital period
165.44 mins
BSTAR
0.024768
Loading maneuver chart data...
Computing Atmospheric mass density...
Loading historical data...
Loading historical data...
Loading historical data...
Loading historical data...
Loading historical data...
Loading historical data...
Loading historical data...

Documentation

Showing up to 5 results
|